Springfield, ID

4:20 AM MDT on May 30, 2017 (GMT -0600)
W. Syphon Rd. | | Change Station
Active Advisory: Flood Advisory Active Notice: Flood Advisory

Elev 4462 ft 42.94 °N, 112.65 °W | Updated 28 seconds ago

Clear
Clear
46.8 °F
Feels Like 47 °F
N
2.7
Wind Variable Wind from SE

Today
High -- | Low -- °F
--% Chance of Precip.
Yesterday
High -- | Low -- °F
Precip. -- in
Pressure 30.01 in
Visibility 10.0 miles
Clouds Clear
Windchill 47 °F
Dew Point 41 °F
Humidity 80%
Rainfall 0.00 in
Snow Depth Not available.
5:54 AM 9:02 PM
Waxing Crescent, 28% visible
METAR KPIH 300953Z AUTO 04004KT 10SM CLR 07/03 A3011 RMK AO2 SLP160 T00720033 $
Pressure 30.01 in
Visibility 10.0 miles
Clouds Clear
Windchill 47 °F
Dew Point 41 °F
Humidity 80%
Rainfall 0.00 in
Snow Depth Not available.
5:54 AM 9:02 PM
Waxing Crescent, 28% visible
METAR KPIH 300953Z AUTO 04004KT 10SM CLR 07/03 A3011 RMK AO2 SLP160 T00720033 $

Get Your Daily Forecast Email!

Thanks for signing up!

Be on the lookout for a verification email in your inbox.

You'll start receiving severe weather alerts in your inbox..

×

10-Day Weather Forecast

Almanac

Astronomy

May. 30, 2017 Rise Set
Actual Time
Civil Twilight
Nautical Twilight
Astronomical Twilight
Moon
Length of Visible Light
Length of Day
Tomorrow will be .
, % of the Moon is Illuminated

Today's Extremes

State Highs State Lows

Community

WunderPhotos

Category 6

Welcome to Category 6. This is the collective home for Weather Underground's featured writeups by Dr. Jeff Masters (right), Bob Henson (left), Chris Burt, and other regular contributors.

Nearby

Air Quality

  Air Quality AQ Index Pollutant
Not available.

Snow Depth

Station Depth Elevation

Earthquake Activity

City Distance Mag. Time & Date
Minimum magnitude displayed is 2.5.

Coastal Water Temperatures

Place Temperature

Stations

Nearby Weather Stations

Station Location Temp. Windchill Dew Point Humidity Wind Precip. Elev Updated Type
                   

Watches & Warnings

Flood Advisory
Issued: 12:32 PM MDT May. 29, 2017 – National Weather Service

The flood advisory continues for
the Portneuf River at Pocatello.
* At 11 am Monday the stage was 7.7 feet.
* Bankfull stage is 8.0 feet.
* Flood stage is 8.5 feet.
* Forecast... the river remain near 7.7 feet.
* Impact... at 8.0 feet... water will encroach onto portions of the
bike and walking trail next to the river in Sacajawea Park in
Pocatello.



                       Fld observed forecast 6 am
location stg stg day time Tue Wed Thu

Portneuf River
Portneuf River at po 8.5 7.7 Mon 12 PM 7.5 7.4 7.3




Lat... Lon 4298 11257 4276 11237 4263 11228 4265 11213
      4286 11225 4301 11253